Date,TemperatureHighF,TemperatureAvgF,TemperatureLowF,DewpointHighF,DewpointAvgF,DewpointLowF,HumidityHigh,HumidityAvg,HumidityLow,PressureMaxIn,PressureMinIn,WindSpeedMaxMPH,WindSpeedAvgMPH,GustSpeedMaxMPH,PrecipitationSumIn
2013-2-1,4,-3,-11,4,-6,-19,99,87,66,30.36,30.06,9,1,15,0.00
2013-2-2,10,5,1,9,3,-1,99,91,79,30.20,29.98,8,1,9,0.00
2013-2-3,13,9,3,12,7,1,99,92,79,30.11,29.97,9,2,14,0.00
2013-2-4,16,10,4,14,7,2,99,87,72,30.08,29.77,8,1,11,0.00
2013-2-5,29,22,7,28,20,7,99,92,76,30.09,29.66,12,4,16,0.00
2013-2-6,26,15,2,24,14,2,99,96,88,30.13,29.91,9,2,13,0.00
2013-2-7,27,25,21,26,24,21,99,96,87,30.26,29.98,9,3,15,0.00
2013-2-8,26,24,21,25,22,14,94,90,63,30.39,30.22,11,2,15,0.00
2013-2-9,32,29,26,31,28,25,99,96,92,30.22,29.92,11,5,19,0.00
2013-2-10,33,30,29,33,30,28,99,99,97,29.92,29.25,13,3,16,0.02
2013-2-11,29,25,17,29,23,16,99,92,85,30.05,29.33,17,6,22,0.02
2013-2-12,35,24,15,28,22,14,99,90,74,30.07,29.82,9,3,16,0.20
2013-2-13,38,28,17,34,26,17,99,93,79,29.82,29.55,6,2,11,0.16
2013-2-14,32,26,15,32,23,10,99,87,64,30.20,29.56,16,3,22,0.04
2013-2-15,17,10,4,10,6,3,95,85,72,30.34,30.20,10,3,13,0.02
2013-2-16,19,8,1,13,6,1,99,91,76,30.28,30.11,5,0,7,0.00
2013-2-17,31,21,6,26,18,5,98,86,76,30.11,29.61,11,3,20,0.00
2013-2-18,32,22,5,32,20,3,99,90,84,29.84,29.50,15,4,22,0.00
2013-2-19,5,2,-1,3,-2,-4,93,83,76,30.40,29.84,16,6,22,0.00
2013-2-20,16,5,-7,9,1,-8,94,82,70,30.49,30.39,7,1,7,0.00
2013-2-21,22,14,4,16,10,3,95,83,72,30.46,30.09,8,2,14,0.00
2013-2-22,27,23,20,24,22,16,99,95,79,30.09,29.86,12,2,16,0.12
2013-2-23,25,20,12,24,19,12,99,97,92,29.97,29.86,9,3,14,0.10
2013-2-24,33,18,2,25,16,2,99,90,72,30.11,29.97,6,0,8,0.00
2013-2-25,34,27,19,28,24,18,99,88,74,30.12,30.04,5,0,7,0.00
2013-2-26,34,26,14,29,24,14,99,91,80,30.06,29.88,11,3,16,0.00
2013-2-27,39,32,28,30,27,25,93,84,67,30.04,29.88,12,5,19,0.00
2013-2-28,29,28,25,25,24,20,90,84,79,30.23,30.03,13,4,15,0.00